Theta_e
332 332 332 330 327 325 321 319 317 310 307 307 306 305 305 302 300 300 299 297 297 295
332 331 330 329 329 327 322 314 309 306 302 303 303 301 300 298 296 297 296 296 295 294
328 328 329 327 325 323 315 305 305 301 300 300 300 298 297 296 296 295 294 294 293 292
324 324 326 322 319 315 307 302 300 299 299 298 297 296 295 294 293 292 291 292 291 291
321 316 317 312 307 304 302 300 298 297 295 295 294 294 293 291 292 291 290 290 290 289
315 308 308 304 301 298 296 295 294 293 293 292 293 292 292 291 291 290 290 290 289 288
309 308 307 303 298 295 295 292 292 292 291 291 291 291 290 290 289 289 289 290 289 288
305 304 302 298 295 293 293 292 291 290 289 290 289 289 289 289 288 288 287 288 288 288
299 295 293 290 289 289 288 288 286 287 287 287 287 290 290 289 287 287 286 286 286 286
292 290 290 289 287 286 286 285 286 285 286 286 286 290 290 289 287 286 286 285 285 284
289 288 286 285 285 285 284 284 284 284 285 286 285 289 289 287 286 286 285 285 285 284
289 287 285 284 283 283 283 284 284 284 285 285 285 289 288 286 285 284 284 285 285 285
288 287 286 286 285 284 284 284 283 284 284 285 286 289 288 286 284 283 283 283 284 284
286 286 287 286 284 284 284 283 283 283 283 284 285 287 289 287 284 284 283 283 282 284
Wind_Speed
18 12 12 14 9 9 9 10 11 9 7 8 9 7 7 6 5 6 5 6 5 4
15 16 13 14 11 10 9 7 11 11 10 9 8 10 9 6 7 6 6 6 5 5
15 14 14 9 11 11 9 10 12 12 10 10 8 9 10 8 8 7 6 5 6 5
12 13 12 9 8 10 10 11 11 12 13 12 11 9 10 9 10 9 8 6 7 6
9 6 10 9 8 10 11 11 11 14 12 12 11 11 11 11 9 10 9 9 8 7
7 7 8 9 9 9 11 11 12 11 11 11 12 10 10 10 10 9 9 9 9 9
5 6 7 7 9 10 11 12 10 12 11 9 10 10 10 10 10 8 7 8 8 8
6 6 5 6 8 9 10 11 12 12 10 12 9 9 12 11 11 10 9 7 6 6
7 6 5 5 6 6 6 8 8 8 9 11 7 14 16 14 11 10 10 9 8 6
7 8 7 5 6 7 8 7 8 9 10 9 7 17 16 15 9 9 9 9 9 7
5 6 7 8 7 6 7 10 10 9 9 9 7 20 19 13 9 8 8 9 9 8
6 7 9 9 9 7 7 7 8 8 8 9 7 19 20 15 8 7 8 7 8 8
6 6 8 9 10 8 7 6 4 6 7 7 8 16 19 14 6 7 6 6 6 10
5 5 5 5 4 7 7 7 6 6 4 5 6 11 19 18 6 6 6 6 6 6
Wind_Direction
211 214 215 214 198 201 194 186 168 168 155 154 155 148 149 134 125 123 123 124 117 115
217 220 212 203 205 199 190 164 161 161 150 156 172 149 144 140 137 133 127 122 132 130
208 215 221 205 203 185 169 158 164 156 157 153 172 155 146 141 141 141 133 140 143 143
203 207 209 194 181 173 153 163 170 165 161 162 163 170 147 146 147 150 147 148 151 153
197 175 181 166 161 157 167 170 175 162 160 164 166 165 152 148 157 154 158 160 156 160
171 171 177 163 159 162 161 164 163 158 161 169 163 159 152 148 156 158 167 166 167 163
227 207 191 171 165 164 166 161 173 166 153 151 163 159 150 150 151 156 163 167 168 163
201 212 194 169 172 165 172 172 171 160 150 148 161 164 155 157 154 159 157 163 159 163
167 153 161 158 153 161 153 154 140 146 151 149 163 164 162 157 162 159 161 166 159 160
162 155 154 148 154 156 161 143 157 152 157 160 165 164 168 157 154 157 160 165 161 163
163 152 140 144 160 163 164 168 167 165 166 159 173 175 167 156 150 153 164 170 168 169
175 164 157 161 165 166 161 174 183 172 158 165 165 178 168 162 152 158 168 171 171 175
171 169 176 177 176 172 171 172 165 168 173 159 163 181 179 169 158 165 169 162 176 190
158 170 175 161 159 162 164 150 154 158 150 159 169 185 185 184 177 176 174 182 189 196